FW9148 Weather Reports


time (UTC)temp
C
wind
direction
speed
KPH
gust
KPH
rain 1hr
cm
rain 24hr
cm
rain mn
cm
humidity
%
barometer
mb
20260507030054 13 0 0.0 1.6 0.03 0.76 0.76 97 1006.1
20260507024558 14 0 0.0 1.6 0.03 0.76 0.76 98 1006.2
20260507023051 14 0 0.0 1.6 0.03 0.76 0.76 98 1006.0
20260507021558 14 0 0.0 1.6 0.03 0.76 0.76 98 1006.1
20260507020054 14 0 0.0 0.0 0.00 0.74 0.74 98 1005.8
20260507014553 14 0 0.0 1.6 0.00 0.74 0.74 98 1006.0
20260507013052 14 0 0.0 1.6 0.00 0.74 0.74 98 1005.8
20260507011554 14 0 0.0 1.6 0.00 0.74 0.74 98 1005.9
20260507010109 14 0 0.0 1.6 0.00 0.74 0.74 98 1005.8
20260507004554 14 0 0.0 0.0 0.00 0.74 0.74 97 1005.9
20260507003052 14 0 0.0 1.6 0.00 0.74 0.74 97 1005.8
20260507001557 14 0 0.0 1.6 0.00 0.74 0.74 97 1005.6
20260507000056 14 0 0.0 3.2 0.00 0.74 0.74 97 1005.6
20260506234602 14 0 0.0 3.2 0.08 0.74 0.74 97 1005.6
20260506233103 14 0 0.0 1.6 0.13 0.74 0.74 97 1005.5
20260506231554 14 0 0.0 0.0 0.15 0.74 0.74 97 1005.3
20260506230054 14 0 0.0 8.0 0.15 0.74 0.74 97 1005.4
20260506224556 14 202 0.0 3.2 0.10 0.66 0.66 97 1005.6
20260506223058 15 0 0.0 3.2 0.10 0.61 0.61 96 1005.7
20260506221553 15 0 0.0 11.3 0.10 0.58 0.58 96 1005.8
20260506220053 15 122 0.0 4.8 0.13 0.58 0.58 96 1005.9
20260506214556 15 0 1.6 8.0 0.13 0.56 0.56 96 1005.8
20260506213057 15 200 0.0 3.2 0.13 0.51 0.51 96 1005.8
20260506211557 15 0 0.0 6.4 0.15 0.48 0.48 96 1005.8
20260506210053 15 197 0.0 3.2 0.18 0.46 0.46 96 1006.2
20260506204554 15 0 0.0 6.4 0.18 0.43 0.43 95 1006.4
20260506203054 15 174 0.0 4.8 0.13 0.38 0.38 95 1006.6
20260506201552 15 0 0.0 6.4 0.08 0.33 0.33 94 1006.6
20260506200057 16 0 0.0 8.0 0.03 0.28 0.28 93 1006.5
20260506194553 16 212 0.0 4.8 0.03 0.25 0.25 93 1006.7
20260506193052 16 260 0.0 12.9 0.08 0.25 0.25 94 1006.7
20260506191554 16 0 0.0 1.6 0.13 0.25 0.25 94 1006.7
20260506190054 16 0 0.0 1.6 0.18 0.25 0.25 94 1006.5
20260506184554 16 230 0.0 1.6 0.23 0.23 0.23 93 1006.8
20260506183057 16 0 0.0 4.8 0.18 0.18 0.18 93 1006.8
20260506181551 17 0 0.0 1.6 0.13 0.13 0.13 91 1007.1
20260506180057 18 73 0.0 1.6 0.08 0.08 0.08 85 1007.2
20260506174711 20 0 0.0 3.2 0.00 0.00 0.00 72 1007.1
20260506173122 20 248 0.0 4.8 0.00 0.00 0.00 67 1007.0
20260506171556 21 193 1.6 4.8 0.00 0.00 0.00 64 1007.0
20260506170058 22 195 0.0 8.0 0.00 0.00 0.00 65 1007.0
20260506164552 22 204 1.6 6.4 0.00 0.00 0.00 65 1007.1
20260506163055 21 241 1.6 6.4 0.00 0.00 0.00 65 1007.2
20260506161603 21 240 1.6 8.0 0.00 0.00 0.00 68 1007.6
20260506160052 21 0 0.0 6.4 0.00 0.00 0.00 68 1008.0
20260506154600 21 236 1.6 4.8 0.00 0.00 0.00 69 1008.3
20260506153054 20 0 0.0 4.8 0.00 0.00 0.00 71 1008.4
20260506151612 20 200 1.6 4.8 0.00 0.00 0.00 71 1008.5
20260506150109 20 210 1.6 4.8 0.00 0.00 0.00 70 1008.7
20260506144614 20 188 0.0 6.4 0.00 0.00 0.00 72 1008.7
20260506143117 20 210 0.0 4.8 0.00 0.00 0.00 71 1008.8
20260506141608 20 0 1.6 6.4 0.00 0.00 0.00 73 1008.6
20260506140122 20 145 0.0 4.8 0.00 0.00 0.00 74 1008.4
20260506134559 19 280 0.0 8.0 0.00 0.00 0.00 75 1008.5
20260506133128 18 205 0.0 6.4 0.00 0.00 0.00 76 1008.7
20260506131600 18 221 0.0 3.2 0.00 0.00 0.00 76 1008.9
20260506130136 18 0 0.0 4.8 0.00 0.00 0.00 78 1009.2
20260506124557 18 214 1.6 11.3 0.00 0.00 0.00 77 1009.1
20260506123055 18 195 0.0 6.4 0.00 0.00 0.00 77 1009.0
20260506121556 17 0 0.0 1.6 0.00 0.00 0.00 80 1009.0
20260506120055 16 53 0.0 8.0 0.00 0.00 0.00 80 1009.3
20260506114554 16 0 0.0 4.8 0.00 0.00 0.00 83 1009.4
20260506113054 15 0 0.0 8.0 0.00 0.00 0.00 84 1009.5
20260506111553 15 198 0.0 3.2 0.00 0.00 0.00 84 1009.6
20260506110053 15 137 1.6 8.0 0.00 0.00 0.00 84 1009.5
20260506104559 15 336 0.0 1.6 0.00 0.00 0.00 86 1009.7
20260506103054 14 0 0.0 6.4 0.00 0.00 0.00 87 1009.6
20260506101553 13 191 0.0 4.8 0.00 0.00 0.00 87 1009.5
20260506100107 13 0 0.0 1.6 0.00 0.00 0.00 87 1009.6
20260506094602 13 99 0.0 6.4 0.00 0.00 0.00 87 1009.3
20260506093055 13 0 0.0 1.6 0.00 0.00 0.00 87 1009.3
20260506091551 13 134 0.0 1.6 0.00 0.00 0.00 87 1009.4
20260506084554 13 256 0.0 8.0 0.00 0.00 0.00 87 1009.2
20260506083058 13 0 0.0 1.6 0.00 0.00 0.00 87 1009.3
20260506081605 13 0 0.0 4.8 0.00 0.00 0.00 87 1009.3
20260506073053 13 0 0.0 1.6 0.00 0.00 0.00 86 1009.3
20260506071558 13 0 0.0 0.0 0.00 0.00 0.00 86 1009.2
20260506061553 13 0 0.0 0.0 0.00 0.00 0.00 81 1009.1
20260506044555 15 0 0.0 6.4 0.00 0.00 0.00 75 1009.4
20260506043111 15 0 0.0 3.2 0.00 0.00 0.00 74 1009.4
20260506041558 15 157 0.0 4.8 0.00 0.00 0.00 75 1009.4
20260506040056 15 0 0.0 0.0 0.00 0.00 0.00 75 1009.4
20260506034612 15 0 0.0 1.6 0.00 0.00 0.00 74 1009.4
20260506033054 15 0 0.0 3.2 0.00 0.00 0.00 74 1009.4
20260506031604 16 0 0.0 1.6 0.00 0.00 0.00 72 1009.4